����������;��������(kWh)
2019-08-19 00:00;73,45
2019-08-19 00:15;72,05
2019-08-19 00:30;72,7
2019-08-19 00:45;73,25
2019-08-19 01:00;73,95
2019-08-19 01:15;75,95
2019-08-19 01:30;76,45
2019-08-19 01:45;74
2019-08-19 02:00;74,95
2019-08-19 02:15;75,1
2019-08-19 02:30;74,55
2019-08-19 02:45;74,2
2019-08-19 03:00;73,9
2019-08-19 03:15;75,4
2019-08-19 03:30;77,75
2019-08-19 03:45;73,75
2019-08-19 04:00;72,9
2019-08-19 04:15;72,3
2019-08-19 04:30;73,4
2019-08-19 04:45;73,05
2019-08-19 05:00;72,25
2019-08-19 05:15;73,7
2019-08-19 05:30;73
2019-08-19 05:45;72,05
2019-08-19 06:00;70,5
2019-08-19 06:15;70,6
2019-08-19 06:30;68,85
2019-08-19 06:45;67,1
2019-08-19 07:00;66,5
2019-08-19 07:15;66,6
2019-08-19 07:30;66,95
2019-08-19 07:45;69,55
2019-08-19 08:00;68,85
2019-08-19 08:15;30,55
2019-08-19 08:30;0
2019-08-19 08:45;0
2019-08-19 09:00;0
2019-08-19 09:15;0
2019-08-19 09:30;0
2019-08-19 09:45;0
2019-08-19 10:00;0
2019-08-19 10:15;0
2019-08-19 10:30;0
2019-08-19 10:45;0
2019-08-19 11:00;0
2019-08-19 11:15;0
2019-08-19 11:30;0
2019-08-19 11:45;0
2019-08-19 12:00;7,75
2019-08-19 12:15;140,25
2019-08-19 12:30;161,85
2019-08-19 12:45;197,45
2019-08-19 13:00;227,95
2019-08-19 13:15;176,9
2019-08-19 13:30;174,95
2019-08-19 13:45;181,3
2019-08-19 14:00;175,95
2019-08-19 14:15;175,3
2019-08-19 14:30;167,3
2019-08-19 14:45;164,9
2019-08-19 15:00;171
2019-08-19 15:15;165,65
2019-08-19 15:30;156,1
2019-08-19 15:45;141,75
2019-08-19 16:00;140,75
2019-08-19 16:15;132,3
2019-08-19 16:30;130,3
2019-08-19 16:45;109,5
2019-08-19 17:00;112,15
2019-08-19 17:15;107,15
2019-08-19 17:30;103
2019-08-19 17:45;93,7
2019-08-19 18:00;92
2019-08-19 18:15;93,15
2019-08-19 18:30;96,6
2019-08-19 18:45;105,1
2019-08-19 19:00;103,75
2019-08-19 19:15;102
2019-08-19 19:30;104,65
2019-08-19 19:45;104,8
2019-08-19 20:00;101,7
2019-08-19 20:15;98,75
2019-08-19 20:30;101,6
2019-08-19 20:45;103,4
2019-08-19 21:00;104,4
2019-08-19 21:15;101,65
2019-08-19 21:30;102,45
2019-08-19 21:45;102,6
2019-08-19 22:00;97,95
2019-08-19 22:15;93,95
2019-08-19 22:30;90,35
2019-08-19 22:45;87,05
2019-08-19 23:00;93,9
2019-08-19 23:15;89,3
2019-08-19 23:30;91,8
2019-08-19 23:45;93,9
2019-08-20 00:00;81,3
2019-08-20 00:15;79,35
2019-08-20 00:30;80,35
2019-08-20 00:45;77,9
2019-08-20 01:00;81
2019-08-20 01:15;80,7
2019-08-20 01:30;79,2
2019-08-20 01:45;81,6
2019-08-20 02:00;78,8
2019-08-20 02:15;78,2
2019-08-20 02:30;80,1
2019-08-20 02:45;81,1
2019-08-20 03:00;82,2
2019-08-20 03:15;80,45
2019-08-20 03:30;83,15
2019-08-20 03:45;81,9
2019-08-20 04:00;82,1
2019-08-20 04:15;83,3
2019-08-20 04:30;81,8
2019-08-20 04:45;83,5
2019-08-20 05:00;84,9
2019-08-20 05:15;84,05
2019-08-20 05:30;84,95
2019-08-20 05:45;81,6
2019-08-20 06:00;76,25
2019-08-20 06:15;76,4
2019-08-20 06:30;76,65
2019-08-20 06:45;75,9
2019-08-20 07:00;72,95
2019-08-20 07:15;74,65
2019-08-20 07:30;74,65
2019-08-20 07:45;132,85
2019-08-20 08:00;85,2
2019-08-20 08:15;90,65
2019-08-20 08:30;99,6
2019-08-20 08:45;101,15
2019-08-20 09:00;99,55
2019-08-20 09:15;121,75
2019-08-20 09:30;131,2
2019-08-20 09:45;132,45
2019-08-20 10:00;139,25
2019-08-20 10:15;148,95
2019-08-20 10:30;146,1
2019-08-20 10:45;151,3
2019-08-20 11:00;149,95
2019-08-20 11:15;158
2019-08-20 11:30;160,25
2019-08-20 11:45;160,15
2019-08-20 12:00;152,5
2019-08-20 12:15;165,45
2019-08-20 12:30;124,95
2019-08-20 12:45;86,95
2019-08-20 13:00;165,75
2019-08-20 13:15;158,5
2019-08-20 13:30;155,2
2019-08-20 13:45;162,15
2019-08-20 14:00;156,75
2019-08-20 14:15;159,95
2019-08-20 14:30;153,05
2019-08-20 14:45;157,1
2019-08-20 15:00;150,05
2019-08-20 15:15;135,7
2019-08-20 15:30;130,15
2019-08-20 15:45;129,3
2019-08-20 16:00;123,6
2019-08-20 16:15;115,6
2019-08-20 16:30;116,8
2019-08-20 16:45;111,7
2019-08-20 17:00;110,3
2019-08-20 17:15;109,2
2019-08-20 17:30;105,6
2019-08-20 17:45;102,4
2019-08-20 18:00;101,45
2019-08-20 18:15;99,05
2019-08-20 18:30;98,6
2019-08-20 18:45;100,4
2019-08-20 19:00;98,7
2019-08-20 19:15;99,3
2019-08-20 19:30;98,85
2019-08-20 19:45;101
2019-08-20 20:00;99,25
2019-08-20 20:15;96,1
2019-08-20 20:30;98,7
2019-08-20 20:45;99,9
2019-08-20 21:00;99
2019-08-20 21:15;100,3
2019-08-20 21:30;98,3
2019-08-20 21:45;98,85
2019-08-20 22:00;96
2019-08-20 22:15;93,05
2019-08-20 22:30;93,15
2019-08-20 22:45;92,15
2019-08-20 23:00;91,5
2019-08-20 23:15;86,8
2019-08-20 23:30;86,4
2019-08-20 23:45;93,55
2019-08-21 00:00;78,35
2019-08-21 00:15;77
2019-08-21 00:30;78,25
2019-08-21 00:45;77,3
2019-08-21 01:00;77,25
2019-08-21 01:15;77,4
2019-08-21 01:30;78,55
2019-08-21 01:45;76,8
2019-08-21 02:00;79,25
2019-08-21 02:15;78,2
2019-08-21 02:30;79,95
2019-08-21 02:45;79,85
2019-08-21 03:00;78,95
2019-08-21 03:15;80,9
2019-08-21 03:30;80,2
2019-08-21 03:45;81,5
2019-08-21 04:00;80,35
2019-08-21 04:15;81,3
2019-08-21 04:30;80,15
2019-08-21 04:45;78,95
2019-08-21 05:00;78
2019-08-21 05:15;77,2
2019-08-21 05:30;78,15
2019-08-21 05:45;76,85
2019-08-21 06:00;74,75
2019-08-21 06:15;72
2019-08-21 06:30;73,2
2019-08-21 06:45;68,45
2019-08-21 07:00;73,65
2019-08-21 07:15;70,35
2019-08-21 07:30;74,55
2019-08-21 07:45;113,95
2019-08-21 08:00;87,1
2019-08-21 08:15;86,15
2019-08-21 08:30;92,5
2019-08-21 08:45;98,5
2019-08-21 09:00;103,6
2019-08-21 09:15;103,85
2019-08-21 09:30;107,35
2019-08-21 09:45;116,3
2019-08-21 10:00;131,05
2019-08-21 10:15;181,5
2019-08-21 10:30;169,3
2019-08-21 10:45;143,7
2019-08-21 11:00;162,8
2019-08-21 11:15;159,15
2019-08-21 11:30;161
2019-08-21 11:45;180,25
2019-08-21 12:00;176,8
2019-08-21 12:15;169,1
2019-08-21 12:30;182,85
2019-08-21 12:45;180,65
2019-08-21 13:00;177,6
2019-08-21 13:15;168,4
2019-08-21 13:30;176,3
2019-08-21 13:45;164
2019-08-21 14:00;175,05
2019-08-21 14:15;173,8
2019-08-21 14:30;168,4
2019-08-21 14:45;157,15
2019-08-21 15:00;159,3
2019-08-21 15:15;147,4
2019-08-21 15:30;139,8
2019-08-21 15:45;139,6
2019-08-21 16:00;128,45
2019-08-21 16:15;125,2
2019-08-21 16:30;131,9
2019-08-21 16:45;114,25
2019-08-21 17:00;124,2
2019-08-21 17:15;120,2
2019-08-21 17:30;106,7
2019-08-21 17:45;101,25
2019-08-21 18:00;99,05
2019-08-21 18:15;99,8
2019-08-21 18:30;97,8
2019-08-21 18:45;97,65
2019-08-21 19:00;99,25
2019-08-21 19:15;99,45
2019-08-21 19:30;100,4
2019-08-21 19:45;93,8
2019-08-21 20:00;87,85
2019-08-21 20:15;88,25
2019-08-21 20:30;89,35
2019-08-21 20:45;91,4
2019-08-21 21:00;89,05
2019-08-21 21:15;88,45
2019-08-21 21:30;87,8
2019-08-21 21:45;86,9
2019-08-21 22:00;85,05
2019-08-21 22:15;83,2
2019-08-21 22:30;83,8
2019-08-21 22:45;82,6
2019-08-21 23:00;90,05
2019-08-21 23:15;86,9
2019-08-21 23:30;87,2
2019-08-21 23:45;94,3
2019-08-22 00:00;80,6
2019-08-22 00:15;79,2
2019-08-22 00:30;79,85
2019-08-22 00:45;78,7
2019-08-22 01:00;80,15
2019-08-22 01:15;84,9
2019-08-22 01:30;81,9
2019-08-22 01:45;82,9
2019-08-22 02:00;81,65
2019-08-22 02:15;82,05
2019-08-22 02:30;83,2
2019-08-22 02:45;81,4
2019-08-22 03:00;82,3
2019-08-22 03:15;83,55
2019-08-22 03:30;83,75
2019-08-22 03:45;84,35
2019-08-22 04:00;82
2019-08-22 04:15;78,3
2019-08-22 04:30;79,35
2019-08-22 04:45;79,2
2019-08-22 05:00;79,2
2019-08-22 05:15;80,8
2019-08-22 05:30;79,9
2019-08-22 05:45;78,85
2019-08-22 06:00;76,45
2019-08-22 06:15;76,3
2019-08-22 06:30;75,1
2019-08-22 06:45;80,95
2019-08-22 07:00;83,65
2019-08-22 07:15;83,85
2019-08-22 07:30;85,55
2019-08-22 07:45;144,9
2019-08-22 08:00;148,2
2019-08-22 08:15;113,3
2019-08-22 08:30;112
2019-08-22 08:45;106,5
2019-08-22 09:00;124,95
2019-08-22 09:15;129,05
2019-08-22 09:30;129,3
2019-08-22 09:45;142,55
2019-08-22 10:00;138,25
2019-08-22 10:15;142,35
2019-08-22 10:30;166,3
2019-08-22 10:45;160,75
2019-08-22 11:00;164,35
2019-08-22 11:15;177,05
2019-08-22 11:30;174,4
2019-08-22 11:45;173,2
2019-08-22 12:00;188,4
2019-08-22 12:15;190,3
2019-08-22 12:30;189,3
2019-08-22 12:45;188,9
2019-08-22 13:00;183,15
2019-08-22 13:15;178,7
2019-08-22 13:30;185
2019-08-22 13:45;178,5
2019-08-22 14:00;170,15
2019-08-22 14:15;178
2019-08-22 14:30;170,85
2019-08-22 14:45;163,1
2019-08-22 15:00;162,6
2019-08-22 15:15;150,25
2019-08-22 15:30;156,35
2019-08-22 15:45;152,5
2019-08-22 16:00;141,05
2019-08-22 16:15;136,2
2019-08-22 16:30;111,6
2019-08-22 16:45;121,6
2019-08-22 17:00;115,9
2019-08-22 17:15;113,3
2019-08-22 17:30;108,75
2019-08-22 17:45;103,95
2019-08-22 18:00;101,1
2019-08-22 18:15;103,45
2019-08-22 18:30;99,55
2019-08-22 18:45;100,8
2019-08-22 19:00;100,25
2019-08-22 19:15;100,7
2019-08-22 19:30;102,65
2019-08-22 19:45;103,65
2019-08-22 20:00;101,95
2019-08-22 20:15;101,95
2019-08-22 20:30;99,75
2019-08-22 20:45;91,65
2019-08-22 21:00;91,55
2019-08-22 21:15;89,5
2019-08-22 21:30;90,35
2019-08-22 21:45;88,9
2019-08-22 22:00;89,95
2019-08-22 22:15;86,1
2019-08-22 22:30;87,9
2019-08-22 22:45;87,3
2019-08-22 23:00;93,95
2019-08-22 23:15;88,55
2019-08-22 23:30;91,5
2019-08-22 23:45;94,25
2019-08-23 00:00;81,75
2019-08-23 00:15;83,75
2019-08-23 00:30;84,2
2019-08-23 00:45;80,8
2019-08-23 01:00;80,65
2019-08-23 01:15;81,2
2019-08-23 01:30;80
2019-08-23 01:45;80,25
2019-08-23 02:00;80,4
2019-08-23 02:15;80,95
2019-08-23 02:30;80,5
2019-08-23 02:45;80,25
2019-08-23 03:00;79,45
2019-08-23 03:15;80,55
2019-08-23 03:30;81,85
2019-08-23 03:45;81,2
2019-08-23 04:00;81,7
2019-08-23 04:15;81,05
2019-08-23 04:30;82,7
2019-08-23 04:45;81,05
2019-08-23 05:00;80,2
2019-08-23 05:15;84,95
2019-08-23 05:30;85,05
2019-08-23 05:45;83,8
2019-08-23 06:00;81,75
2019-08-23 06:15;80,85
2019-08-23 06:30;79,3
2019-08-23 06:45;79,55
2019-08-23 07:00;78,05
2019-08-23 07:15;84,3
2019-08-23 07:30;94
2019-08-23 07:45;153,15
2019-08-23 08:00;155,9
2019-08-23 08:15;120,15
2019-08-23 08:30;112,55
2019-08-23 08:45;117,9
2019-08-23 09:00;134,05
2019-08-23 09:15;136,5
2019-08-23 09:30;145,75
2019-08-23 09:45;163,85
2019-08-23 10:00;155,6
2019-08-23 10:15;159,4
2019-08-23 10:30;172,2
2019-08-23 10:45;171,5
2019-08-23 11:00;169,55
2019-08-23 11:15;186
2019-08-23 11:30;177,65
2019-08-23 11:45;185,95
2019-08-23 12:00;194,85
2019-08-23 12:15;199,15
2019-08-23 12:30;184,05
2019-08-23 12:45;189,9
2019-08-23 13:00;190,4
2019-08-23 13:15;200,9
2019-08-23 13:30;200,75
2019-08-23 13:45;183,85
2019-08-23 14:00;191,65
2019-08-23 14:15;178,95
2019-08-23 14:30;175,6
2019-08-23 14:45;177,95
2019-08-23 15:00;161,8
2019-08-23 15:15;159,7
2019-08-23 15:30;162,25
2019-08-23 15:45;140,5
2019-08-23 16:00;155,1
2019-08-23 16:15;144,35
2019-08-23 16:30;131,4
2019-08-23 16:45;138,15
2019-08-23 17:00;112,25
2019-08-23 17:15;114,6
2019-08-23 17:30;109,05
2019-08-23 17:45;97,15
2019-08-23 18:00;97,2
2019-08-23 18:15;105,75
2019-08-23 18:30;103,5
2019-08-23 18:45;104,6
2019-08-23 19:00;104,05
2019-08-23 19:15;104,25
2019-08-23 19:30;104,8
2019-08-23 19:45;106,15
2019-08-23 20:00;103,05
2019-08-23 20:15;104,1
2019-08-23 20:30;105,8
2019-08-23 20:45;107,35
2019-08-23 21:00;105,9
2019-08-23 21:15;105,5
2019-08-23 21:30;104,25
2019-08-23 21:45;107,3
2019-08-23 22:00;103,35
2019-08-23 22:15;99,95
2019-08-23 22:30;101,7
2019-08-23 22:45;101,85
2019-08-23 23:00;97,45
2019-08-23 23:15;99,8
2019-08-23 23:30;104,9
2019-08-23 23:45;109,95
2019-08-24 00:00;97,65
2019-08-24 00:15;89,45
2019-08-24 00:30;86,45
2019-08-24 00:45;85,2
2019-08-24 01:00;85,3
2019-08-24 01:15;85,5
2019-08-24 01:30;84
2019-08-24 01:45;84,4
2019-08-24 02:00;84,7
2019-08-24 02:15;81,95
2019-08-24 02:30;82,35
2019-08-24 02:45;81,45
2019-08-24 03:00;83,55
2019-08-24 03:15;85,9
2019-08-24 03:30;84,6
2019-08-24 03:45;86,9
2019-08-24 04:00;87,25
2019-08-24 04:15;88,8
2019-08-24 04:30;88,45
2019-08-24 04:45;85,8
2019-08-24 05:00;87,55
2019-08-24 05:15;87,4
2019-08-24 05:30;87,3
2019-08-24 05:45;87,6
2019-08-24 06:00;86,75
2019-08-24 06:15;86
2019-08-24 06:30;82,7
2019-08-24 06:45;77,3
2019-08-24 07:00;75,2
2019-08-24 07:15;75,2
2019-08-24 07:30;72,35
2019-08-24 07:45;74,65
2019-08-24 08:00;73,3
2019-08-24 08:15;74,3
2019-08-24 08:30;76,85
2019-08-24 08:45;78,45
2019-08-24 09:00;78,3
2019-08-24 09:15;79,3
2019-08-24 09:30;79,1
2019-08-24 09:45;79,3
2019-08-24 10:00;78,8
2019-08-24 10:15;79,5
2019-08-24 10:30;79,3
2019-08-24 10:45;78,4
2019-08-24 11:00;78,2
2019-08-24 11:15;80,3
2019-08-24 11:30;80,6
2019-08-24 11:45;79,5
2019-08-24 12:00;81,8
2019-08-24 12:15;81,85
2019-08-24 12:30;80,25
2019-08-24 12:45;78
2019-08-24 13:00;81,8
2019-08-24 13:15;82
2019-08-24 13:30;82,1
2019-08-24 13:45;79,95
2019-08-24 14:00;81,7
2019-08-24 14:15;81,1
2019-08-24 14:30;82,6
2019-08-24 14:45;84,35
2019-08-24 15:00;82,95
2019-08-24 15:15;84,8
2019-08-24 15:30;84
2019-08-24 15:45;83,4
2019-08-24 16:00;84
2019-08-24 16:15;83,55
2019-08-24 16:30;82,95
2019-08-24 16:45;81,5
2019-08-24 17:00;81,2
2019-08-24 17:15;81,95
2019-08-24 17:30;84,1
2019-08-24 17:45;83,8
2019-08-24 18:00;86,5
2019-08-24 18:15;87,25
2019-08-24 18:30;84,75
2019-08-24 18:45;85,6
2019-08-24 19:00;87,4
2019-08-24 19:15;86
2019-08-24 19:30;85,5
2019-08-24 19:45;88,9
2019-08-24 20:00;87,7
2019-08-24 20:15;87,2
2019-08-24 20:30;90,2
2019-08-24 20:45;88,2
2019-08-24 21:00;91,5
2019-08-24 21:15;90,4
2019-08-24 21:30;90,3
2019-08-24 21:45;91
2019-08-24 22:00;84,9
2019-08-24 22:15;85,8
2019-08-24 22:30;84,05
2019-08-24 22:45;86,05
2019-08-24 23:00;94,05
2019-08-24 23:15;89,85
2019-08-24 23:30;91,7
2019-08-24 23:45;98,05
2019-08-25 00:00;86,75
2019-08-25 00:15;85,05
2019-08-25 00:30;85,2
2019-08-25 00:45;84,15
2019-08-25 01:00;91,45
2019-08-25 01:15;85,9
2019-08-25 01:30;87,8
2019-08-25 01:45;86,65
2019-08-25 02:00;86,95
2019-08-25 02:15;86,85
2019-08-25 02:30;85,9
2019-08-25 02:45;86,5
2019-08-25 03:00;87
2019-08-25 03:15;89,3
2019-08-25 03:30;87,45
2019-08-25 03:45;87,25
2019-08-25 04:00;84,5
2019-08-25 04:15;84,85
2019-08-25 04:30;83,65
2019-08-25 04:45;85,65
2019-08-25 05:00;84,7
2019-08-25 05:15;85,8
2019-08-25 05:30;85,1
2019-08-25 05:45;85,2
2019-08-25 06:00;83,15
2019-08-25 06:15;81,8
2019-08-25 06:30;82,1
2019-08-25 06:45;79,25
2019-08-25 07:00;78,35
2019-08-25 07:15;77
2019-08-25 07:30;77,05
2019-08-25 07:45;76,15
2019-08-25 08:00;75,9
2019-08-25 08:15;77,15
2019-08-25 08:30;76,1
2019-08-25 08:45;79,1
2019-08-25 09:00;80,25
2019-08-25 09:15;79,1
2019-08-25 09:30;81,6
2019-08-25 09:45;82,8
2019-08-25 10:00;82,2
2019-08-25 10:15;82,4
2019-08-25 10:30;82,1
2019-08-25 10:45;83,95
2019-08-25 11:00;82,95
2019-08-25 11:15;83,6
2019-08-25 11:30;82,9
2019-08-25 11:45;81,6
2019-08-25 12:00;84,05
2019-08-25 12:15;83,95
2019-08-25 12:30;81,55
2019-08-25 12:45;83,65
2019-08-25 13:00;81,1
2019-08-25 13:15;83,75
2019-08-25 13:30;85,75
2019-08-25 13:45;86,8
2019-08-25 14:00;84
2019-08-25 14:15;85,85
2019-08-25 14:30;84,35
2019-08-25 14:45;85,8
2019-08-25 15:00;83,15
2019-08-25 15:15;84,1
2019-08-25 15:30;84,95
2019-08-25 15:45;86,4
2019-08-25 16:00;84,75
2019-08-25 16:15;86,2
2019-08-25 16:30;84,45
2019-08-25 16:45;85,6
2019-08-25 17:00;83,85
2019-08-25 17:15;84,75
2019-08-25 17:30;85,25
2019-08-25 17:45;82,9
2019-08-25 18:00;85,35
2019-08-25 18:15;84,5
2019-08-25 18:30;87,15
2019-08-25 18:45;87
2019-08-25 19:00;90,3
2019-08-25 19:15;87,95
2019-08-25 19:30;91,4
2019-08-25 19:45;89,8
2019-08-25 20:00;91
2019-08-25 20:15;91,45
2019-08-25 20:30;95,6
2019-08-25 20:45;93,75
2019-08-25 21:00;95,45
2019-08-25 21:15;93,2
2019-08-25 21:30;92,8
2019-08-25 21:45;93,65
2019-08-25 22:00;91,35
2019-08-25 22:15;88,25
2019-08-25 22:30;88,5
2019-08-25 22:45;86,55
2019-08-25 23:00;92,9
2019-08-25 23:15;89
2019-08-25 23:30;91,3
2019-08-25 23:45;98,85

